Weather History for Chicopee, MA

Change the Weather History Date:

Monday, November 10, 2014

  Actual Average Record
Temperature  
Mean Temperature 42 °F -  
Max Temperature 58 °F 47 °F 71 °F (1999)
Min Temperature 26 °F 30 °F 14 °F (2004)
Degree Days  
Heating Degree Days 23    
Moisture  
Dew Point 28 °F    
Average Humidity 90    
Maximum Humidity 100    
Minimum Humidity 37    
Precipitation  
Precipitation 0.00 in - - ()
Sea Level Pressure  
Sea Level Pressure 30.08 in    
Wind  
Wind Speed 2 mph (NE)    
Max Wind Speed 6 mph    
Max Gust Speed -    
Visibility 4 miles    
Events Fog    
Averages and records for this station are not official NWS values.
T = Trace of Precipitation, MM = Missing Value Source: NWS Daily Summary

Daily Weather History Graph

Daily Weather History Graph

Search for Another Location

Airport:

Trip Planner

Search our weather history database for the weather conditions in past years. The results will help you decide how hot, cold, wet, or windy it might be!

Date:

Astronomy

Nov. 10, 2014 Rise Set
Actual Time 6:34 AM EST 4:33 PM EST
Civil Twilight 6:04 AM EST 5:03 PM EST
Nautical Twilight 5:30 AM EST 5:36 PM EST
Astronomical Twilight 4:58 AM EST 6:09 PM EST
Moon 7:57 PM EST (11/10) 9:55 AM EST (11/10)
Length of Visible Light 10h 58m
Length of Day
9h 59m
Waning Gibbous, 85% of the Moon is Illuminated
Nov 10
Waning Gibbous
Nov 14
Last Quarter
Nov 22
New
Nov 29
First Quarter
Dec 6
Full

Hourly Weather History & Observations

Time (EST) Temp. Windchill Dew Point Humidity Pressure Visibility Wind Dir Wind Speed Gust Speed Precip Events Conditions
12:00 AM 30.2 °F - 28.4 °F 93% 30.01 in 1.5 mi NE 2.3 mph - N/A   Clear
12:01 AM 30.2 °F - 28.4 °F 93% 30.01 in 1.2 mi NE 2.3 mph - N/A   Clear
12:02 AM 30.2 °F - 28.4 °F 93% 30.01 in 1.0 mi NE 2.3 mph - N/A   Clear
12:05 AM 28.4 °F - 28.4 °F 100% 30.01 in 0.8 mi NE 2.3 mph - N/A   Clear
12:09 AM 28.4 °F 24.6 °F 26.6 °F 93% 30.01 in 0.5 mi NE 3.5 mph - N/A Fog Light Freezing Fog
12:15 AM 28.4 °F - 26.6 °F 93% 30.01 in 0.8 mi NE 2.3 mph - N/A   Clear
12:17 AM 28.4 °F - 26.6 °F 93% 30.01 in 1.0 mi NE 2.3 mph - N/A   Clear
12:18 AM 28.4 °F - 28.4 °F 100% 30.01 in 1.0 mi NE 2.3 mph - N/A   Clear
12:19 AM 28.4 °F - 28.4 °F 100% 30.01 in 1.2 mi NNE 2.3 mph - N/A   Clear
12:20 AM 28.4 °F - 28.4 °F 100% 30.01 in 1.8 mi NNE 2.3 mph - N/A   Clear
12:21 AM 28.4 °F 24.6 °F 28.4 °F 100% 30.01 in 2.5 mi NNE 3.5 mph - N/A   Clear
12:22 AM 28.4 °F 24.6 °F 28.4 °F 100% 30.01 in 3.0 mi NNE 3.5 mph - N/A   Clear
12:23 AM 28.4 °F 24.6 °F 28.4 °F 100% 30.01 in 2.5 mi NNE 3.5 mph - N/A   Clear
12:24 AM 28.4 °F 24.6 °F 28.4 °F 100% 30.01 in 2.0 mi NNE 3.5 mph - N/A   Clear
12:25 AM 28.4 °F 24.6 °F 26.6 °F 93% 30.01 in 1.8 mi NNE 3.5 mph - N/A   Clear
12:26 AM 28.4 °F - 26.6 °F 93% 30.01 in 1.5 mi NNE 2.3 mph - N/A   Clear
12:29 AM 28.4 °F - 26.6 °F 93% 30.02 in 1.8 mi NNE 2.3 mph - N/A   Clear
12:33 AM 28.4 °F - 28.4 °F 100% 30.02 in 2.5 mi NNE 2.3 mph - N/A   Clear
12:34 AM 28.4 °F - 28.4 °F 100% 30.02 in 3.0 mi NNE 2.3 mph - N/A   Clear
12:55 AM 30.2 °F - 28.4 °F 93% 30.02 in 2.5 mi Calm Calm - N/A   Clear
12:58 AM 29.8 °F - 28.9 °F 96% 30.04 in 2.5 mi NNE 1.2 mph - N/A   Clear
12:59 AM 30.2 °F - 28.4 °F 93% 30.02 in 2.0 mi NNE 1.2 mph - N/A   Clear
1:04 AM 28.4 °F - 26.6 °F 93% 30.02 in 3.0 mi NE 1.2 mph - N/A   Clear
1:11 AM 26.6 °F - 26.6 °F 100% 30.01 in 1.8 mi NNE 2.3 mph - N/A   Clear
1:12 AM 28.4 °F - 26.6 °F 93% 30.01 in 1.2 mi NNE 2.3 mph - N/A   Clear
1:13 AM 28.4 °F - 26.6 °F 93% 30.01 in 1.0 mi NNE 2.3 mph - N/A   Clear
1:14 AM 28.4 °F - 26.6 °F 93% 30.02 in 1.0 mi North 2.3 mph - N/A   Clear
1:15 AM 26.6 °F - 26.6 °F 100% 30.01 in 0.8 mi North 2.3 mph - N/A   Clear
1:20 AM 26.6 °F - 26.6 °F 100% 30.01 in 1.0 mi NNE 2.3 mph - N/A   Clear
1:22 AM 28.4 °F - 26.6 °F 93% 30.01 in 1.2 mi NNE 2.3 mph - N/A   Clear
1:23 AM 28.4 °F - 26.6 °F 93% 30.01 in 1.5 mi NNE 2.3 mph - N/A   Clear
1:26 AM 28.4 °F - 26.6 °F 93% 30.01 in 1.2 mi NNE 2.3 mph - N/A   Clear
1:28 AM 28.4 °F - 26.6 °F 93% 30.01 in 1.2 mi NNE 2.3 mph - N/A   Clear
1:31 AM 28.4 °F - 26.6 °F 93% 30.01 in 1.2 mi NE 2.3 mph - N/A   Clear
1:32 AM 28.4 °F - 26.6 °F 93% 30.01 in 1.5 mi NE 2.3 mph - N/A   Clear
1:33 AM 28.4 °F - 26.6 °F 93% 30.01 in 1.8 mi NE 2.3 mph - N/A   Clear
1:34 AM 28.4 °F - 26.6 °F 93% 30.01 in 2.0 mi ENE 2.3 mph - N/A   Clear
1:35 AM 28.4 °F - 26.6 °F 93% 30.01 in 2.5 mi ENE 2.3 mph - N/A   Clear
1:36 AM 28.4 °F - 26.6 °F 93% 30.01 in 3.0 mi ENE 2.3 mph - N/A   Clear
1:58 AM 29.5 °F - 28.4 °F 96% 30.04 in 10.0 mi ENE 1.2 mph - N/A   Clear
2:58 AM 30.9 °F - 30.0 °F 96% 30.06 in 10.0 mi NW 2.3 mph - N/A   Scattered Clouds
3:58 AM 30.0 °F - 28.4 °F 94% 30.09 in 4.0 mi ENE 2.3 mph - N/A   Partly Cloudy
3:59 AM 30.2 °F - 28.4 °F 93% 30.06 in 2.5 mi ENE 2.3 mph - N/A   Partly Cloudy
4:05 AM 30.2 °F - 28.4 °F 93% 30.06 in 3.0 mi East 2.3 mph - N/A   Partly Cloudy
4:58 AM 28.0 °F - 27.0 °F 96% 30.10 in 10.0 mi North 1.2 mph - N/A   Clear
5:20 AM 26.6 °F - 26.6 °F 100% 30.09 in 2.5 mi Calm Calm - N/A   Clear
5:23 AM 26.6 °F - 26.6 °F 100% 30.09 in 4.0 mi NE 2.3 mph - N/A   Clear
5:27 AM 28.4 °F - 26.6 °F 93% 30.08 in 2.0 mi NE 2.3 mph - N/A   Clear
5:28 AM 28.4 °F - 26.6 °F 93% 30.08 in 1.8 mi NE 2.3 mph - N/A   Clear
5:29 AM 28.4 °F - 26.6 °F 93% 30.08 in 1.5 mi ENE 2.3 mph - N/A   Clear
5:30 AM 28.4 °F - 26.6 °F 93% 30.08 in 1.5 mi ENE 1.2 mph - N/A   Clear
5:34 AM 28.4 °F - 26.6 °F 93% 30.09 in 1.2 mi NE 1.2 mph - N/A   Clear
5:35 AM 28.4 °F - 26.6 °F 93% 30.09 in 1.2 mi NE 1.2 mph - N/A   Clear
5:37 AM 28.4 °F - 26.6 °F 93% 30.09 in 1.0 mi NE 2.3 mph - N/A   Clear
5:41 AM 28.4 °F - 26.6 °F 93% 30.09 in 1.2 mi NE 2.3 mph - N/A   Clear
5:44 AM 26.6 °F - 26.6 °F 100% 30.09 in 1.2 mi NE 2.3 mph - N/A   Clear
5:45 AM 26.6 °F - 26.6 °F 100% 30.09 in 1.5 mi NE 2.3 mph - N/A   Clear
5:46 AM 26.6 °F - 26.6 °F 100% 30.09 in 1.8 mi ENE 2.3 mph - N/A   Clear
5:47 AM 26.6 °F - 26.6 °F 100% 30.09 in 2.5 mi ENE 2.3 mph - N/A   Clear
5:48 AM 26.6 °F - 26.6 °F 100% 30.09 in 5.0 mi ENE 2.3 mph - N/A   Clear
5:58 AM 27.9 °F - 26.8 °F 96% 30.12 in 10.0 mi East 1.2 mph - N/A   Clear
6:30 AM 26.6 °F - 24.8 °F 93% 30.11 in 2.5 mi NE 1.2 mph - N/A   Clear
6:31 AM 26.6 °F - 24.8 °F 93% 30.11 in 1.5 mi NE 1.2 mph - N/A   Clear
6:34 AM 26.6 °F - 24.8 °F 93% 30.11 in 1.8 mi Calm Calm - N/A   Clear
6:36 AM 26.6 °F - 24.8 °F 93% 30.11 in 1.2 mi Calm Calm - N/A   Clear
6:37 AM 26.6 °F - 24.8 °F 93% 30.11 in 1.0 mi Calm Calm - N/A   Clear
6:38 AM 26.6 °F - 24.8 °F 93% 30.11 in 0.8 mi Calm Calm - N/A   Clear
6:39 AM 26.6 °F - 26.6 °F 100% 30.11 in 0.5 mi Calm Calm - N/A Fog Light Freezing Fog
6:44 AM 26.6 °F - 26.6 °F 100% 30.11 in 0.2 mi Calm Calm - N/A Fog Light Freezing Fog
6:45 AM 26.6 °F - 26.6 °F 100% 30.11 in 0.2 mi Calm Calm - N/A Fog Light Freezing Fog
6:46 AM 26.6 °F - 26.6 °F 100% 30.11 in 0.2 mi Calm Calm - N/A Fog Light Freezing Fog
6:53 AM 26.6 °F - 24.8 °F 93% 30.12 in 0.2 mi Calm Calm - N/A Fog Light Freezing Fog
6:54 AM 26.6 °F - 24.8 °F 93% 30.12 in 0.5 mi NNW 1.2 mph - N/A Fog Light Freezing Fog
6:58 AM 26.4 °F - 25.2 °F 95% 30.15 in 6.0 mi Calm Calm - N/A Fog Clear
7:58 AM 31.8 °F - 30.9 °F 96% 30.17 in 10.0 mi Calm Calm - N/A   Mostly Cloudy
8:58 AM 38.8 °F - 33.8 °F 82% 30.19 in 10.0 mi SSW 2.3 mph - N/A   Clear
9:58 AM 45.5 °F 44.2 °F 34.9 °F 66% 30.20 in 10.0 mi WSW 3.5 mph - N/A   Clear
10:58 AM 51.4 °F - 34.3 °F 52% 30.17 in 10.0 mi SE 4.6 mph - N/A   Clear
11:58 AM 54.5 °F - 32.5 °F 43% 30.17 in 10.0 mi SSW 3.5 mph - N/A   Partly Cloudy
12:58 PM 54.9 °F - 32.2 °F 42% 30.16 in 10.0 mi Calm Calm - N/A   Overcast
1:58 PM 57.9 °F - 31.6 °F 37% 30.15 in 10.0 mi South 5.8 mph - N/A   Clear
2:58 PM 58.5 °F - 31.8 °F 37% 30.15 in 10.0 mi SSW 4.6 mph - N/A   Clear
3:58 PM 57.6 °F - 32.9 °F 39% 30.17 in 10.0 mi ESE 2.3 mph - N/A   Clear
4:58 PM 49.1 °F - 34.5 °F 57% 30.17 in 10.0 mi East 2.3 mph - N/A   Clear
5:58 PM 41.7 °F - 34.3 °F 75% 30.18 in 10.0 mi SSE 1.2 mph - N/A   Clear
6:58 PM 46.9 °F - 34.2 °F 61% 30.20 in 10.0 mi SSE 5.8 mph - N/A   Clear
7:58 PM 43.9 °F - 34.7 °F 70% 30.20 in 10.0 mi SSE 2.3 mph - N/A   Clear
8:58 PM 39.4 °F - 33.3 °F 79% 30.20 in 10.0 mi South 1.2 mph - N/A   Clear
9:58 PM 35.4 °F - 32.7 °F 90% 30.19 in 10.0 mi Calm Calm - N/A   Clear
10:58 PM 34.3 °F - 31.8 °F 90% 30.19 in 10.0 mi SE 1.2 mph - N/A   Clear
11:58 PM 32.2 °F - 30.4 °F 93% 30.19 in 10.0 mi East 1.2 mph - N/A   Clear